Location: Bucharest
(44.4268°N, 26.1025°E)
Time: 19:34:24
(UTC+02:00)

X-37B - Visible Passes

Search period start: 21 January 2022 00:00
Search period end: 31 January 2022 00:00
Orbit: 334 x 337 km, 45.0° (Epoch: 11 January)

Date Brightness Start Highest point End Pass type
(mag) Time Alt. Az. Time Alt. Az. Time Alt. Az.
25 Jan 3.1 18:59:56 10° S 19:00:11 11° S 19:00:11 11° S visible
26 Jan 2.9 19:19:06 10° SW 19:20:01 17° SSW 19:20:01 17° SSW visible
27 Jan 2.7 18:05:24 10° S 18:06:52 13° SE 18:08:20 10° ESE visible
27 Jan 3.4 19:39:08 10° WSW 19:39:47 15° WSW 19:39:47 15° WSW visible
28 Jan 1.6 18:24:33 10° SW 18:27:03 28° SSE 18:28:15 20° ESE visible
29 Jan 0.5 18:44:34 10° WSW 18:47:21 57° SSE 18:47:54 45° ESE visible
30 Jan 0.5 19:04:56 10° W 19:07:31 71° W 19:07:31 71° W visible
